Back to catalog

STARLINK-31898

AliveCommunicationsVLEO
NORAD 59905·PAYLOAD·🇺🇸 United States

Launched May 28, 2024 from Cape Canaveral Space Force Station

Loading…

Next Passes (next 24 hours)

TLE

FreshSource: CelesTrak SupGP

Epoch: Sep 14, 2026, 15:18 UTC

1 59905C 24100W   26257.63798611  .00038332  00000+0  13887-2 0  2572
2 59905  43.0008 134.8835 0001438 261.8620 103.9158 15.27552209    14

Track STARLINK-31898 in real time with AllMySat

Download on the App Store